Location: Unspecified
(7.2000°N, 0.0000°E)
Time: 04:30:53
(UTC+00:00)

ISS - Visible Passes

Search period start: 22 April 2019 00:00
Search period end: 02 May 2019 00:00
Orbit: 408 x 410 km, 51.6° (Epoch: 22 April)

Date Brightness Start Highest point End Pass type
(mag) Time Alt. Az. Time Alt. Az. Time Alt. Az.
22 Apr -3.8 05:07:42 13° SW 05:10:32 61° NW 05:13:47 10° NNE visible
23 Apr -2.9 04:19:48 44° SE 04:19:48 44° SE 04:22:57 10° NE visible
24 Apr -1.8 05:04:34 13° WNW 05:05:27 15° NW 05:07:22 10° NNW visible
25 Apr -1.7 04:16:23 20° N 04:16:23 20° N 04:17:40 10° NNE visible
